This demonstration page uses our WeatherBlox Daily Observations layout. Learn more.

Left ArrowRight Arrow

38.88101, -77.10428

Hourly Observations for September 7, 2022

Temp ( °F °C ) Dew Point ( °F °C ) Humidity (%) Winds ( mph kmh ) Pressure ( in mb ) Visibility ( mi km ) Precip ( " mm )
12:52 am 00:52 Mostly Cloudy 73 22.8 69 20.6 87 87 NNE 7 11 29.97 1015 10 16 0.00 0.00
1:26 am 01:26 Mostly Cloudy 73 22.8 69 20.6 87 87 NE 7 11 29.97 1015 10 16 0.00 0.00
1:52 am 01:52 Mostly Cloudy 73 22.8 69 20.6 87 87 NE 8 13 29.96 1015 10 16 0.00 0.00
2:27 am 02:27 Cloudy 73 22.8 68 20 84 84 NE 7 11 29.96 1014 10 16 0.00 0.00
3:21 am 03:21 Cloudy 73 22.8 68 20 84 84 NE 9 15 29.95 1014 10 16 0.00 0.00
3:52 am 03:52 Cloudy 73 22.8 68 20 84 84 NNE 8 13 29.95 1014 10 16 0.00 0.00
4:12 am 04:12 Cloudy with Light Rain 73 22.8 69 20.6 87 87 NE 10 17 29.95 1014 9 14 0.01 0.13
4:52 am 04:52 Cloudy with Light Rain 72 22.2 69 20.6 91 91 NNE 6 9 29.95 1014 10 16 0.01 0.13
5:25 am 05:25 Cloudy with Light Rain 72 22.2 69 20.6 91 91 NE 6 9 29.95 1014 10 16 0.01 0.25
5:52 am 05:52 Cloudy 72 22.2 69 20.6 91 91 VRB 6 9 29.95 1014 10 16 0.01 0.25
6:04 am 06:04 Cloudy 72 22.2 69 20.6 91 91 N 7 11 29.95 1014 10 16 0.00 0.00
6:52 am 06:52 Mostly Cloudy 72 22.2 68 20 87 87 NE 7 11 29.96 1015 10 16 0.01 0.13
7:52 am 07:52 Cloudy 72 22.2 68 20 87 87 NNE 8 13 29.97 1015 10 16 0.01 0.13
8:52 am 08:52 Cloudy 73 22.8 69 20.6 87 87 NE 8 13 29.97 1015 10 16 0.00 0.00
9:52 am 09:52 Cloudy 74 23.3 69 20.6 85 85 NE 7 11 29.97 1015 10 16 0.00 0.00
10:27 am 10:27 Mostly Cloudy 76 24.4 69 20.6 79 79 ENE 12 19 29.97 1015 10 16 0.00 0.00
10:52 am 10:52 Mostly Cloudy 76 24.4 69 20.6 79 79 NE 7 11 29.97 1015 10 16 0.00 0.00
11:44 am 11:44 Cloudy with Drizzle 72 22.2 69 20.6 91 91 NE 14 22 29.98 1015 3 4 0.01 0.13
11:52 am 11:52 Cloudy with Drizzle 73 22.8 70 21.1 90 90 NE 13 20 29.97 1015 3 4 0.01 0.13
11:55 am 11:55 Cloudy with Drizzle 73 22.8 70 21.1 90 90 NE 15 24 29.98 1015 3 5 0.01 0.13
12:26 pm 12:26 Cloudy 73 22.8 69 20.6 87 87 E 9 15 29.97 1015 10 16 0.01 0.13
12:52 pm 12:52 Cloudy 76 24.4 69 20.6 79 79 ENE 9 15 29.96 1014 10 16 0.01 0.13
1:02 pm 13:02 Mostly Cloudy 76 24.4 69 20.6 79 79 ENE 9 15 29.95 1014 10 16 0.00 0.00
1:52 pm 13:52 Cloudy 77 25 68 20 74 74 NE 13 20 29.94 1014 10 16 0.00 0.00
2:52 pm 14:52 Cloudy with Light Rain 75 23.9 68 20 79 79 NNE 13 20 29.94 1014 10 16 0.01 0.13
3:52 pm 15:52 Partly Cloudy 77 25 69 20.6 77 77 NE 14 22 29.92 1013 10 16 0.01 0.13
4:39 pm 16:39 Mostly Cloudy 74 23.3 68 20 82 82 ENE 15 24 29.92 1013 10 16 0.00 0.00
4:52 pm 16:52 Mostly Cloudy 74 23.3 68 20 82 82 NE 14 22 29.92 1013 10 16 0.00 0.00
5:52 pm 17:52 Cloudy 73 22.8 67 19.4 81 81 NE 20 31 29.93 1013 10 16 0.00 0.00
6:00 pm 18:00 Cloudy with Light Rain 72 22.2 68 20 87 87 NE 14 22 29.93 1013 3 5 0.01 0.13
6:12 pm 18:12 Cloudy with Light Rain 71 21.7 69 20.6 93 93 NE 12 19 29.93 1013 3 4 0.01 0.13
6:25 pm 18:25 Cloudy with Light Rain 71 21.7 69 20.6 93 93 E 9 15 29.93 1013 3 5 0.01 0.25
6:44 pm 18:44 Cloudy with Light Rain 71 21.7 69 20.6 93 93 ENE 12 19 29.93 1013 8 13 0.01 0.25
6:52 pm 18:52 Cloudy with Light Rain 71 21.7 68 20 90 90 NE 10 17 29.93 1014 9 14 0.01 0.25
6:59 pm 18:59 Cloudy 71 21.7 69 20.6 93 93 NE 9 15 29.94 1014 10 16 0.01 0.13
7:26 pm 19:26 Cloudy with Light Rain 71 21.7 68 20 90 90 NE 10 17 29.94 1014 5 8 0.01 0.13
7:52 pm 19:52 Cloudy 71 21.7 68 20 90 90 NNE 10 17 29.94 1014 10 16 0.01 0.13
8:41 pm 20:41 Cloudy 71 21.7 68 20 90 90 NNE 9 15 29.95 1014 10 16 0.00 0.00
8:52 pm 20:52 Cloudy 71 21.7 68 20 90 90 NNE 9 15 29.95 1014 10 16 0.00 0.00
9:15 pm 21:15 Cloudy 71 21.7 68 20 90 90 NNE 9 15 29.97 1015 10 16 0.00 0.00
9:52 pm 21:52 Cloudy 71 21.7 67 19.4 87 87 NE 10 17 29.96 1014 10 16 0.00 0.00
10:52 pm 22:52 Cloudy 71 21.7 67 19.4 87 87 NE 10 17 29.96 1015 10 16 0.00 0.00
11:11 pm 23:11 Cloudy 70 21.1 67 19.4 90 90 ENE 9 15 29.96 1014 10 16 0.00 0.00
11:52 pm 23:52 Cloudy 70 21.1 66 18.9 87 87 NNE 10 17 29.95 1014 10 16 0.00 0.00

Powered by AerisWeather